[[{"header":{"parameterUnit":"m.s-1","parameterCategory":1,"la1":30.2991,"la2":30.254,"lo1":-89.0895,"lo2":-89.0444,"dy":0.0017,"dx":0.0017,"nx":28,"ny":28,"refTime":"2025-11-11T03:00:00:Z","depth":0,"parameterNumber":2,"parameterNumberName":"U-component_of_WINDS"},"data":[0,0,0,0,0,0,0,0,0,0,0,0,0,0,0,0,0,0,0,0,0,0,0,0,0,0,0,0,0,0,0,0,0,0,0,0,0,0,0,0,0,0,0,0,0,0,0,0,0,0,0,0,0,0,0,0,0,0,3.278,3.2781,0,3.2825,3.2826,3.2827,3.2812,3.2811,3.281,3.2809,3.2855,3.2857,3.2859,0,0,0,0,0,0,0,0,0,0,0,0,0,3.2679,3.2681,3.278,3.2781,3.2781,3.2825,3.2826,3.2827,3.2812,3.2811,3.281,3.2808,3.2854,3.2857,3.2859,0,0,0,0,0,0,0,0,0,0,0,0,0,3.2723,3.2681,3.278,3.2779,3.278,3.2825,3.2826,3.2827,3.2812,3.2811,3.2809,3.2808,3.2853,3.2856,3.2859,3.2908,0,0,3.2869,3.2871,0,0,0,0,0,0,0,0,3.2721,3.2727,3.2779,3.2779,3.278,3.2811,3.2807,3.2854,3.2813,3.28,3.2809,3.2807,3.2841,3.2846,3.2857,3.2911,3.2912,3.2869,3.2871,3.2873,3.2874,0,0,0,0,0,0,0,3.2718,3.2725,3.2798,3.278,3.278,3.2776,3.2781,3.2816,3.2828,3.2801,3.28,3.2805,3.2841,3.2854,3.2858,3.2913,3.2869,3.2872,3.2874,3.2875,3.3006,3.3007,0,0,0,0,0,0,3.2714,3.2722,3.2797,3.2799,3.2746,3.2779,3.2784,3.2803,3.2828,3.283,3.2807,3.2805,3.2849,3.2854,3.286,3.2916,3.2873,3.2876,3.2878,3.3004,3.3006,3.3008,0,0,0,0,0,0,3.2712,3.2721,3.2795,3.2761,3.277,3.2782,3.2803,3.2804,3.2817,3.2832,3.2834,3.2817,3.2849,3.2855,3.2896,3.2918,3.2877,3.288,3.3002,3.3005,3.3007,3.3031,0,0,0,0,0,0,3.2709,3.272,3.274,3.2761,3.2772,3.2831,3.2805,3.2806,3.2823,3.282,3.2843,3.2845,3.2848,3.2891,3.2899,3.2921,3.2883,3.3001,3.3004,3.3006,3.3029,3.3034,3.3039,0,0,0,0,0,3.2706,3.2745,3.2741,3.275,3.2796,3.2832,3.2838,3.284,3.2825,3.2843,3.2853,3.2845,3.2915,3.2895,3.2904,3.2928,3.2999,3.3003,3.3006,3.3026,3.3033,3.3039,0,0,0,0,0,0,3.2726,3.2748,3.2743,3.2791,3.281,3.2829,3.2853,3.2848,3.2871,3.2868,3.287,3.2875,3.2916,3.2926,3.2905,3.2975,3.2954,3.296,3.2967,3.2973,3.2979,3.2974,3.2885,0,0,0,0,0,3.2736,3.2764,3.2782,3.2822,3.2832,3.2841,3.2857,3.2857,3.2876,3.2884,3.2896,3.2915,3.2941,3.2958,3.2983,3.3031,3.3034,3.3051,3.3056,3.3061,3.3065,3.3088,3.3095,3.3019,3.3019,3.3019,0,0,3.2758,3.2773,3.279,3.2827,3.2841,3.2869,3.2848,3.2879,3.2899,3.2889,3.2927,3.2937,3.2958,3.3001,3.3021,3.3011,3.3086,3.3065,3.3068,3.307,3.3092,3.3099,3.3106,3.3022,3.3021,3.3021,0,0,3.2809,3.2825,3.2859,3.2874,3.2895,3.2901,3.2909,3.293,3.2935,3.2974,3.2966,3.299,3.3036,3.305,3.3063,3.3119,3.3111,3.3127,3.3154,3.3177,3.3183,3.3188,3.3205,3.3212,3.3132,3.3132,3.3132,0,3.2833,3.2875,3.2877,3.2908,3.2923,3.2915,3.2948,3.2963,3.2992,3.3002,3.299,3.3045,3.3059,3.3105,3.3118,3.313,3.3138,3.3124,3.3182,3.3187,3.3192,3.3208,3.3215,3.3133,3.3133,3.3133,3.3133,0,3.2901,3.293,3.2955,3.2982,3.3,3.3032,3.3038,3.3057,3.3055,3.3061,3.31,3.3116,3.3143,3.3154,3.3153,3.3199,3.3191,3.3181,3.316,3.3201,3.3216,3.3223,3.3136,3.3135,3.3135,3.3134,0,0,3.2966,3.2994,3.3003,3.3014,3.3037,3.3059,3.309,3.3116,3.3131,3.3151,3.3176,3.3214,3.3203,3.3218,3.3219,3.3239,3.3279,3.3226,3.3226,3.3233,3.3328,3.3334,3.3341,3.3275,3.3276,3.3277,3.3325,0,3.3018,3.3073,3.3075,3.3124,3.315,3.3142,3.3169,3.3185,3.3192,3.3214,3.3222,3.3248,3.3234,3.3242,3.3262,3.327,3.3298,3.3267,3.3296,3.3297,3.3289,3.335,3.3357,3.3402,3.3332,3.3333,3.3334,0,3.3086,3.3107,3.3159,3.3176,3.3187,3.3211,3.3234,3.3256,3.3274,3.3277,3.3293,3.3291,3.3321,3.33,3.3341,3.332,3.3332,3.3338,3.3339,3.3341,3.3317,3.3351,3.3416,3.3422,3.3344,3.3343,3.3342,0,3.3126,3.3167,3.3203,3.3213,3.3235,3.3252,3.3262,3.3278,3.3293,3.3313,3.3322,3.3346,3.3359,3.3377,3.338,3.3365,3.342,3.34,3.3422,3.3422,3.3433,3.3432,3.3499,3.3444,3.3444,3.3444,3.3444,0,3.3182,3.3213,3.3221,3.3242,3.3276,3.3279,3.3312,3.3321,3.3335,3.3358,3.3353,3.3374,3.3378,3.34,3.3403,3.3435,3.3441,3.3443,3.3443,3.3443,3.3442,3.3449,3.3445,3.3446,3.3445,3.3445,3.3445,0,3.3231,3.3238,3.3275,3.3293,3.3298,3.3322,3.3336,3.3357,3.3363,3.3391,3.3398,3.3407,3.3432,3.3437,3.3467,3.3469,3.3506,3.3505,3.35,3.3499,3.352,3.3517,3.3593,3.3602,3.3543,3.3544,3.3544,0,3.3266,3.3289,3.3309,3.3323,3.3334,3.3358,3.3372,3.3375,3.3391,3.3412,3.3429,3.3454,3.3473,3.3513,3.3522,3.3544,3.3542,3.3567,3.3545,3.3543,3.3539,3.3537,3.3538,3.357,3.3571,3.3571,3.3572,0,3.3325,3.3327,3.3349,3.3371,3.3388,3.3406,3.3423,3.3435,3.3441,3.3458,3.3483,3.3498,3.3528,3.3552,3.3574,3.3583,3.3578,3.3579,3.3584,3.3583,3.3578,3.3579,3.3509,3.3576,3.3576,3.3576,3.3575,3.3575,3.3366,3.3386,3.3402,3.3426,3.3439,3.3455,3.3474,3.3482,3.3503,3.3527,3.3528,3.3555,3.3571,3.36,3.361,3.3631,3.3623,3.3632,3.3634,3.3636,3.3636,3.3577,3.3635,3.3635,3.3635,3.3635,3.3635,0,3.3424,3.3433,3.3455,3.3479,3.3497,3.3491,3.3509,3.3524,3.3548,3.3563,3.3582,3.361,3.3633,3.3643,3.3665,3.368,3.3677,3.3685,3.3683,3.3685,3.3643,3.3635,3.3686,3.3686,3.3686,3.3686,3.3686,3.3686,3.3455,3.3487,3.3491,3.3529,3.3539,3.3565,3.3575,3.3589,3.3601,3.3632,3.3651,3.3658,3.3671,3.3693,3.3713,3.3716,3.3723,3.3732,3.3733,3.3693,3.3688,3.3683,3.3675,3.3734,3.3734,3.3772,3.3772,3.3773]},{"header":{"parameterUnit":"m.s-1","parameterCategory":1,"la1":30.2991,"la2":30.254,"lo1":-89.0895,"lo2":-89.0444,"dy":0.0017,"dx":0.0017,"nx":28,"ny":28,"refTime":"2025-11-11T03:00:00:Z","depth":0,"parameterNumber":3,"parameterNumberName":"V-component_of_WINDS"},"data":[0,0,0,0,0,0,0,0,0,0,0,0,0,0,0,0,0,0,0,0,0,0,0,0,0,0,0,0,0,0,0,0,0,0,0,0,0,0,0,0,0,0,0,0,0,0,0,0,0,0,0,0,0,0,0,0,0,0,1.5329,1.5328,0,1.5264,1.5263,1.5263,1.521,1.5209,1.5208,1.5208,1.5138,1.5137,1.5136,0,0,0,0,0,0,0,0,0,0,0,0,0,1.5404,1.5403,1.5329,1.5328,1.5328,1.5264,1.5263,1.5262,1.521,1.5209,1.5208,1.5208,1.5139,1.5137,1.5136,0,0,0,0,0,0,0,0,0,0,0,0,0,1.5359,1.5403,1.5329,1.5294,1.529,1.5264,1.5263,1.5262,1.521,1.5209,1.5208,1.5207,1.5139,1.5137,1.5135,1.5139,0,0,1.5129,1.5128,0,0,0,0,0,0,0,0,1.5361,1.5356,1.53,1.5296,1.5292,1.5244,1.5264,1.5221,1.521,1.524,1.5208,1.5207,1.5174,1.5169,1.5159,1.5136,1.5133,1.5129,1.5128,1.5127,1.5126,0,0,0,0,0,0,0,1.5364,1.5358,1.5303,1.5299,1.5294,1.528,1.5272,1.5256,1.5212,1.5237,1.5233,1.5227,1.5172,1.5161,1.5157,1.5132,1.5129,1.5127,1.5126,1.5125,1.5107,1.5108,0,0,0,0,0,0,1.5374,1.5361,1.5305,1.5301,1.5325,1.5279,1.5271,1.526,1.5212,1.5204,1.5227,1.5224,1.5165,1.5159,1.5154,1.5154,1.5127,1.5125,1.5124,1.5107,1.5107,1.5108,0,0,0,0,0,0,1.5375,1.5369,1.5308,1.533,1.5321,1.5279,1.5267,1.5259,1.5248,1.5205,1.5197,1.5224,1.5164,1.5157,1.5143,1.5151,1.5124,1.5122,1.5106,1.5107,1.5108,1.5156,0,0,0,0,0,0,1.5378,1.537,1.5372,1.5331,1.532,1.53,1.5268,1.5259,1.5245,1.5241,1.52,1.5192,1.5163,1.5146,1.5141,1.5148,1.5121,1.5105,1.5106,1.5107,1.5153,1.5158,1.5163,0,0,0,0,0,1.5381,1.5388,1.5372,1.5366,1.5322,1.53,1.5294,1.5261,1.5246,1.5247,1.5219,1.5194,1.5151,1.5146,1.5139,1.5145,1.5104,1.5106,1.5107,1.5151,1.5157,1.5162,0,0,0,0,0,0,1.543,1.5382,1.5364,1.5358,1.5334,1.5291,1.5292,1.5269,1.5247,1.5244,1.5202,1.5193,1.5184,1.5163,1.5158,1.5145,1.5124,1.5125,1.516,1.5165,1.517,1.5175,1.5119,0,0,0,0,0,1.5441,1.5428,1.5386,1.5385,1.5373,1.5335,1.5324,1.53,1.5273,1.5262,1.5233,1.5206,1.5187,1.5175,1.5154,1.515,1.5139,1.5151,1.5155,1.516,1.516,1.5155,1.5159,1.5114,1.5114,1.5114,0,0,1.5462,1.5434,1.5428,1.5394,1.5372,1.5359,1.5326,1.5314,1.5303,1.526,1.5245,1.5223,1.519,1.5181,1.5175,1.5163,1.517,1.5162,1.5165,1.5164,1.5157,1.5161,1.5165,1.5115,1.5114,1.5114,0,0,1.5494,1.5472,1.5468,1.5447,1.5414,1.5388,1.5388,1.5348,1.5332,1.5317,1.5284,1.5269,1.5237,1.5215,1.5199,1.5221,1.5197,1.5216,1.524,1.5236,1.5239,1.5242,1.5249,1.5252,1.5217,1.5217,1.5217,0,1.5524,1.5503,1.5469,1.5458,1.5443,1.5404,1.5399,1.538,1.5342,1.5332,1.532,1.5277,1.5253,1.5237,1.5242,1.5231,1.5228,1.522,1.5242,1.5244,1.5246,1.5252,1.5255,1.5219,1.5219,1.5219,1.5219,0,1.5541,1.5528,1.5528,1.5493,1.5479,1.5471,1.5434,1.5423,1.54,1.5375,1.5359,1.5328,1.53,1.5295,1.5273,1.5275,1.5269,1.525,1.5227,1.5254,1.5259,1.5261,1.5223,1.5222,1.5221,1.5221,0,0,1.5603,1.5549,1.5549,1.5533,1.5494,1.5482,1.5471,1.5445,1.5436,1.5411,1.54,1.5373,1.5355,1.5337,1.5312,1.5308,1.5326,1.5288,1.5287,1.5296,1.5326,1.534,1.5343,1.5309,1.531,1.531,1.5328,0,1.5627,1.5608,1.5576,1.5566,1.5552,1.5514,1.5505,1.5479,1.5455,1.5439,1.5412,1.5393,1.5371,1.536,1.5354,1.5325,1.5331,1.5323,1.5298,1.5297,1.5307,1.5346,1.5362,1.538,1.533,1.533,1.533,0,1.5654,1.5632,1.5621,1.5582,1.5575,1.5567,1.554,1.5525,1.5495,1.5477,1.5458,1.543,1.5415,1.5395,1.5374,1.5369,1.5357,1.5341,1.5341,1.5336,1.5315,1.5342,1.5386,1.5388,1.5333,1.5333,1.5333,0,1.5698,1.5666,1.5655,1.5642,1.5597,1.5592,1.5573,1.5541,1.5527,1.5503,1.5493,1.5467,1.5453,1.5432,1.5398,1.5387,1.538,1.5357,1.5364,1.5365,1.5364,1.5364,1.5405,1.5357,1.5357,1.5357,1.5357,0,1.5729,1.5724,1.5674,1.5668,1.566,1.5622,1.5615,1.5592,1.5565,1.5552,1.5517,1.5505,1.5461,1.5443,1.5416,1.5402,1.5395,1.538,1.5373,1.5383,1.5385,1.5374,1.5371,1.5357,1.5357,1.5357,1.5357,0,1.5778,1.5745,1.573,1.5688,1.5678,1.5674,1.5637,1.5628,1.5602,1.5586,1.558,1.5539,1.5516,1.548,1.5447,1.5428,1.5418,1.5407,1.5429,1.5425,1.5433,1.5433,1.5468,1.547,1.5422,1.5422,1.5422,0,1.5799,1.5794,1.5752,1.5741,1.5723,1.5707,1.5692,1.5654,1.564,1.5605,1.56,1.5575,1.5553,1.5519,1.5485,1.5459,1.5446,1.546,1.5441,1.5451,1.5445,1.5445,1.5444,1.5464,1.5465,1.5465,1.5466,0,1.584,1.5824,1.5805,1.578,1.5764,1.5742,1.5718,1.5711,1.5668,1.5654,1.5631,1.5614,1.558,1.5555,1.5524,1.5503,1.5477,1.5472,1.5472,1.5482,1.5495,1.5487,1.544,1.5471,1.547,1.547,1.547,1.5469,1.5875,1.5868,1.5838,1.5817,1.5796,1.5774,1.5764,1.5737,1.5717,1.5688,1.5666,1.5644,1.5612,1.5568,1.5548,1.5529,1.5518,1.5518,1.5518,1.5519,1.5522,1.5498,1.5524,1.5524,1.5523,1.5523,1.5523,0,1.5914,1.5892,1.5874,1.5842,1.5826,1.5804,1.5776,1.5763,1.5745,1.5718,1.5697,1.567,1.5646,1.561,1.5582,1.5574,1.5562,1.5568,1.5568,1.5563,1.5534,1.5537,1.5579,1.5579,1.5579,1.5579,1.5579,1.5579,1.5932,1.5919,1.5899,1.5875,1.5853,1.5832,1.5818,1.5798,1.5776,1.5748,1.5728,1.5705,1.5674,1.5644,1.562,1.561,1.5601,1.5611,1.5597,1.5571,1.5566,1.5561,1.5563,1.561,1.561,1.5627,1.5628,1.5628]}]]